Tracking 26931 objects as of 6-Feb-2023
HD Live streaming from Space Station
objects crossing your sky now

DELTA 2 R/B(1)

Track DELTA 2 R/B(1) now!
10-day predictions


NORAD ID: 27665
Int'l Code: 2003-005C
Perigee: 796.8 km
Apogee: 809.6 km
Inclination: 39.6 °
Period: 100.8 minutes
Semi major axis: 7174 km
RCS: 9.691 m2 (large)
Launch date: January 29, 2003
Source: United States (US)
Launch site: AIR FORCE EASTERN TEST RANGE (AFETR)

Note: This is a ROCKET BODY
Your satellite tracking list
Your tracking list is empty




NASA's NSSDC Master Catalog

Two Line Element Set (TLE):
1 27665U 03005C   23036.80226719  .00000090  00000-0  69098-4 0  9998
2 27665  39.5766  61.6550 0008929 336.6186 191.1946 14.28695197 45392
Source of the keplerian elements: AFSPC